Location: *
(49.4547°N, 7.9131°E)
Time: 15:36:08
(UTC+00:00)

Lacrosse 5 rocket - Pass Details

Date: 22 September 2019
Orbit: 459 x 639 km, 57.0° (Epoch: 19 October)

Event Time Altitude Azimuth Distance (km) Brightness Sun altitude
Rises 18:29:20 0° 209° (SSW) 2,477 4.9 -10.8°
Reaches altitude 10° 18:31:32 10° 199° (SSW) 1,619 3.8 -11.2°
Maximum altitude 18:34:50 33° 134° (SE) 815 1.7 -11.7°
Enters shadow 18:37:17 16° 77° (ENE) 1,339 2.8 -12.1°
